Theta_e
311 311 310 310 311 311 311 310 310 310 310 310 310 310 311 312 312 309 303 311 312 317 313 307 313 310 308 307 310 312 300 297 299 300 302 308 306 310 311 307 308 310 310 314 323
310 310 311 311 311 310 310 310 310 309 310 310 310 310 311 312 307 305 316 317 317 316 306 301 305 310 303 304 305 303 300 299 304 305 304 307 307 307 306 306 306 308 312 315 318
310 310 311 310 310 310 310 310 309 309 309 309 309 311 312 311 304 307 319 317 317 317 305 304 307 308 304 305 304 302 298 303 304 306 306 305 306 308 305 303 307 307 310 312 313
310 309 310 310 310 310 310 310 309 309 308 308 310 311 312 309 293 309 319 317 315 311 309 308 303 301 301 301 305 299 303 304 304 306 306 303 307 305 306 307 310 310 312 311 312
309 309 310 310 309 309 309 309 308 308 308 309 310 311 308 302 303 310 318 318 313 309 309 307 302 301 297 300 302 301 302 304 305 305 305 305 302 303 304 308 310 310 311 311 311
310 309 309 309 308 308 307 308 308 307 308 309 310 310 305 294 309 309 307 307 308 309 307 308 304 304 300 299 299 301 301 301 302 303 302 301 301 302 304 307 307 308 308 310 311
309 309 308 307 306 306 306 306 307 307 308 310 311 311 303 300 309 311 308 305 306 306 305 309 308 304 304 300 303 302 297 300 301 302 301 303 298 299 305 306 305 306 307 309 311
308 306 305 305 306 306 306 307 307 308 310 313 314 311 298 310 311 308 308 306 308 307 305 307 309 305 303 305 301 297 296 291 297 299 300 299 292 299 304 304 305 306 308 308 310
305 305 305 305 306 306 307 307 307 309 313 312 310 307 298 310 305 309 312 307 308 307 305 305 303 300 301 296 293 294 288 290 293 299 299 298 294 301 305 305 304 306 307 308 309
305 305 305 305 306 306 306 306 309 310 311 312 310 303 305 302 306 308 311 309 306 304 300 299 297 293 294 292 286 289 290 291 291 296 297 295 296 300 303 303 302 302 306 307 308
305 304 305 305 305 305 304 307 303 303 307 302 301 301 302 303 307 303 304 305 305 302 296 298 292 288 292 294 294 293 292 291 294 297 294 294 294 296 300 301 300 301 301 303 306
304 304 304 304 304 305 304 301 298 299 292 301 299 299 303 305 300 304 305 298 298 294 298 296 290 295 297 296 295 293 291 290 293 296 295 293 293 298 300 302 303 302 303 305 306
304 303 304 303 304 302 301 299 303 303 293 297 301 301 301 304 300 301 302 299 295 293 294 292 295 299 296 294 293 292 290 289 289 293 295 294 291 295 300 302 304 305 305 306 306
302 303 303 303 299 301 301 302 305 305 291 292 296 300 302 301 298 306 305 301 297 293 294 293 298 296 295 293 294 289 295 294 292 290 284 294 285 294 297 299 303 305 308 309 309
302 302 302 303 300 299 300 303 305 304 281 293 297 305 299 296 298 300 305 301 294 294 295 292 294 293 293 294 296 292 296 293 293 291 290 290 288 291 296 296 300 307 309 313 314
302 302 302 302 303 303 304 305 303 290 280 289 295 293 291 295 296 299 299 303 301 295 295 293 298 297 296 297 297 297 293 293 293 291 284 288 288 289 292 300 304 307 309 311 313
301 301 299 301 300 305 306 301 289 283 290 287 289 290 289 288 291 293 293 293 291 288 289 293 292 296 298 293 297 296 291 282 281 282 282 291 289 291 300 305 305 305 307 310 312
301 300 303 303 306 307 303 294 282 286 286 291 289 289 285 288 289 291 289 287 292 294 290 286 285 294 297 294 291 292 291 283 277 280 283 291 286 292 304 306 307 308 308 310 310
300 301 303 306 307 305 296 286 285 287 288 286 286 284 285 288 288 287 287 286 292 295 288 287 287 297 298 297 295 291 288 293 287 288 284 286 292 297 304 303 304 305 306 306 308
298 299 299 304 306 302 292 286 286 289 288 287 281 285 282 285 284 285 285 290 292 295 295 290 284 292 295 297 297 294 296 287 288 279 278 284 287 289 294 299 302 302 303 304 305
297 294 300 304 305 296 288 287 287 290 289 285 284 283 284 283 285 284 285 289 293 292 293 291 288 287 292 291 291 291 290 291 291 288 281 281 287 298 297 300 300 302 303 302 302
298 291 301 304 293 292 288 288 286 288 289 287 288 286 285 285 284 284 283 287 292 292 287 290 286 282 286 294 297 293 292 292 284 284 287 286 287 300 300 302 303 303 303 301 300
293 293 299 300 288 288 289 287 287 286 287 286 285 287 288 284 281 285 286 291 293 290 287 289 284 279 284 289 293 291 294 293 293 291 286 284 287 298 299 301 304 302 302 300 298
295 290 293 295 293 289 286 284 284 289 286 287 287 288 286 285 287 284 285 289 292 291 292 290 284 281 278 283 287 285 291 294 291 286 286 287 289 293 298 300 302 301 299 297 294
295 291 292 287 288 288 287 285 283 282 287 288 286 286 285 281 283 283 285 287 289 291 290 287 281 284 286 287 287 287 289 291 290 290 286 289 288 294 296 296 296 298 296 293 291
291 291 291 290 288 287 283 285 283 284 284 284 284 286 286 282 283 281 284 285 284 288 288 288 280 283 281 286 287 286 291 290 289 290 290 290 291 296 294 292 292 291 290 288 287
295 297 294 287 288 286 286 285 284 285 287 287 286 285 283 285 288 288 289 288 287 286 285 285 282 281 278 284 287 283 288 290 290 293 292 287 291 296 292 287 285 287 286 284 284
Wind_Speed
7 7 7 8 10 11 11 13 14 15 16 17 16 17 18 19 20 20 22 16 3 4 4 14 15 13 16 19 20 20 17 18 24 24 22 20 21 13 10 16 12 13 6 5 10
7 8 9 9 10 11 13 14 15 17 18 18 17 17 18 17 20 23 18 8 7 5 9 13 15 15 15 15 18 19 18 24 24 21 22 21 16 11 14 15 11 13 14 9 10
8 9 10 10 11 11 12 14 16 18 18 18 18 16 16 17 13 4 4 6 6 7 12 15 18 16 19 19 20 22 23 22 24 24 24 22 16 16 17 17 15 11 13 15 11
9 9 10 10 12 12 13 14 16 18 20 19 16 16 16 9 7 5 7 7 5 9 12 15 17 18 20 20 21 24 26 25 23 24 23 22 20 19 22 19 17 16 12 14 12
10 9 11 11 12 14 15 15 18 19 20 19 16 13 10 8 13 11 7 8 8 11 14 14 15 16 20 19 20 24 23 23 21 23 22 22 21 21 24 20 20 19 18 16 14
10 10 10 12 13 15 16 17 18 19 19 19 15 9 7 13 5 10 7 8 11 13 13 14 14 14 17 17 19 20 22 22 21 21 20 22 25 21 21 21 24 23 22 19 18
10 9 10 12 14 15 18 18 19 20 19 18 10 9 12 21 11 10 7 10 12 14 15 13 13 16 11 14 19 18 19 19 21 22 23 21 28 26 22 23 26 25 21 20 18
9 8 10 12 14 16 19 20 19 18 15 10 9 11 9 9 5 13 12 14 14 14 13 14 13 13 17 15 19 19 17 18 16 22 24 23 28 24 22 22 20 19 19 19 18
7 8 10 12 14 17 20 20 19 13 8 5 8 13 9 3 8 9 6 9 9 12 12 10 11 13 13 14 16 15 19 22 24 22 20 18 21 18 16 15 14 12 11 11 13
7 8 11 12 14 17 20 21 9 5 7 11 10 7 8 8 3 6 6 7 8 7 10 12 8 13 14 14 17 17 18 20 19 16 16 22 24 18 18 19 16 19 16 15 14
7 8 10 13 16 18 14 7 6 7 13 13 3 14 14 10 11 15 15 12 11 12 12 14 12 16 18 20 22 20 22 23 20 23 21 21 21 21 21 22 19 21 19 20 19
6 7 10 13 18 19 10 5 6 5 8 17 11 11 11 5 9 7 6 13 11 15 16 15 16 17 19 20 18 19 18 19 21 22 19 23 26 23 21 23 22 21 18 18 19
5 5 10 13 16 10 2 4 4 6 7 6 11 7 2 5 6 2 2 9 16 16 18 20 16 16 20 18 18 19 17 17 19 18 23 21 24 26 27 30 23 21 20 19 20
4 6 9 14 6 2 3 3 5 2 5 12 10 6 8 5 6 6 3 7 13 17 19 19 18 22 18 16 16 20 16 18 17 17 13 17 17 21 19 19 14 7 4 5 8
4 8 9 7 9 4 6 4 4 4 4 12 11 5 5 6 9 10 2 7 13 15 13 16 17 19 20 19 17 19 15 15 15 14 17 19 15 13 19 20 13 9 8 13 14
5 8 11 6 6 6 7 5 4 6 5 7 4 2 7 6 7 2 8 10 12 13 17 20 20 18 16 15 16 15 14 16 14 13 15 19 18 14 16 6 8 12 12 11 11
6 9 8 6 4 5 4 6 7 6 4 8 2 1 7 11 11 10 15 12 12 13 16 20 21 21 19 15 15 13 11 9 8 10 12 10 14 16 9 8 8 8 9 9 10
7 10 6 5 5 5 6 7 7 4 5 5 5 10 14 15 10 10 12 15 20 9 14 16 17 14 18 24 17 18 16 9 9 9 9 1 8 8 13 11 8 9 10 12 10
10 6 6 4 4 4 7 8 7 10 6 8 12 13 12 6 4 7 15 15 7 11 6 9 13 12 9 16 18 17 7 15 14 17 12 10 6 10 10 10 8 12 13 11 9
4 5 4 2 3 6 5 6 3 6 6 5 5 5 8 12 12 11 13 10 8 7 9 8 15 14 14 16 18 21 12 11 9 5 8 12 15 4 9 4 12 12 13 11 11
4 4 4 1 4 6 4 1 2 7 6 5 7 9 9 9 11 12 11 14 10 12 11 9 7 14 13 7 18 12 15 6 3 9 4 5 3 13 9 9 9 10 12 12 12
4 2 1 3 4 3 3 4 4 1 1 3 4 7 8 9 9 12 15 14 8 8 9 6 6 10 22 14 21 28 13 17 4 5 7 9 7 12 16 11 7 13 13 13 13
3 4 2 3 2 4 5 2 3 3 2 3 5 4 8 9 9 11 6 9 8 9 8 6 2 8 12 14 6 14 7 10 13 10 7 4 2 8 15 11 15 15 14 13 13
2 1 4 6 1 2 4 1 2 3 7 4 7 9 10 8 10 7 7 4 11 10 11 3 6 12 11 19 17 10 26 17 9 4 5 6 7 4 12 15 18 17 15 14 15
2 2 2 2 3 3 3 2 0 4 2 5 6 4 4 5 11 14 12 15 13 5 3 2 7 15 19 21 22 20 25 7 17 14 3 5 6 16 18 18 17 16 15 15 16
2 3 4 5 3 2 4 3 4 2 3 8 8 10 11 13 13 15 16 14 13 11 6 4 6 16 21 18 22 9 15 8 5 6 14 20 13 12 14 13 16 14 13 15 15
1 2 5 7 6 3 3 5 3 4 4 6 8 9 13 15 16 17 17 18 18 17 12 11 6 9 11 16 13 11 16 13 8 10 10 10 10 14 13 12 11 11 13 13 12
Wind_Direction
277 282 297 307 314 316 315 318 318 315 315 315 316 314 312 310 306 281 263 233 257 125 323 271 243 208 226 247 242 232 250 249 248 253 267 269 266 247 249 264 265 273 265 272 116
270 285 296 301 306 310 313 316 316 315 315 313 313 313 311 314 300 278 259 143 159 136 249 243 238 211 216 222 235 234 242 243 259 276 277 287 296 289 255 257 254 271 284 234 159
263 280 294 304 307 308 312 314 313 311 310 309 309 309 310 312 295 99 84 160 184 194 240 233 253 236 227 225 232 231 244 259 270 287 298 301 291 286 262 262 269 258 232 249 257
263 277 288 299 304 307 308 308 306 305 305 304 304 307 308 291 293 97 136 134 181 221 238 235 236 243 246 240 240 243 241 247 257 267 285 294 293 260 275 276 275 278 270 258 249
266 273 285 296 300 304 305 301 303 303 302 300 300 306 297 232 257 115 153 168 202 209 237 238 238 236 246 254 255 259 260 259 262 266 263 284 271 280 274 272 276 272 266 258 256
260 273 287 296 300 303 303 301 301 299 297 294 293 290 256 254 267 141 213 218 241 230 248 253 244 241 259 259 257 264 276 277 271 279 272 273 272 257 256 267 263 259 255 251 247
260 278 291 297 302 304 299 297 297 298 297 291 275 225 251 250 291 301 223 248 268 253 259 249 269 276 273 265 260 282 292 285 273 275 269 268 263 260 266 259 259 259 253 244 239
262 278 295 302 304 302 300 298 296 297 291 285 246 230 257 283 309 296 266 260 248 258 270 282 292 273 275 280 284 274 263 271 269 261 252 236 258 261 258 260 249 246 242 244 239
252 282 295 302 306 304 300 295 295 286 268 235 213 229 266 147 243 222 255 258 276 219 242 259 256 257 265 250 260 247 258 259 271 271 254 278 276 279 259 275 291 275 264 257 245
251 278 297 308 309 304 302 292 294 260 231 213 252 237 260 251 319 286 283 236 260 217 219 226 236 234 232 245 247 256 256 258 263 270 243 243 250 251 269 288 290 286 277 268 265
247 285 304 310 309 305 312 276 198 203 235 243 181 239 305 295 304 258 240 244 237 250 226 208 224 234 230 232 241 265 280 277 284 292 310 298 291 273 274 270 250 251 260 261 250
240 284 306 315 313 310 295 289 43 343 292 238 253 265 263 291 272 205 224 225 236 242 228 241 223 248 249 256 256 268 264 274 286 289 280 276 272 276 268 258 249 246 247 251 254
259 296 313 318 320 306 22 17 338 335 262 195 208 229 196 230 285 320 236 238 248 248 239 251 251 233 239 249 257 248 255 268 275 280 284 290 280 267 258 255 243 242 242 246 257
272 312 317 319 306 304 222 344 5 339 268 152 195 185 214 229 259 217 224 287 252 245 255 258 249 260 249 247 263 261 251 254 270 275 271 282 288 287 292 294 255 210 233 256 279
299 311 312 310 309 255 43 349 334 240 261 164 127 102 255 236 323 180 151 244 264 278 245 257 253 248 254 261 244 258 287 287 290 283 282 277 269 280 280 281 255 83 58 16 4
308 315 320 242 230 16 3 309 247 234 220 126 98 144 287 252 264 227 224 202 277 272 264 266 266 267 254 252 255 266 272 258 262 262 258 263 263 264 265 31 62 71 53 28 3
318 316 294 313 1 331 304 243 238 247 169 120 88 281 300 290 277 285 274 259 257 238 245 238 232 238 241 239 251 232 238 248 258 237 253 281 286 266 158 103 98 82 60 35 11
315 309 225 306 341 322 266 236 257 39 61 58 332 306 282 278 286 289 301 279 269 327 294 279 270 250 212 223 236 232 217 223 240 250 285 304 274 317 109 121 106 84 67 46 24
314 224 244 87 308 299 264 239 353 15 16 358 317 263 261 168 184 303 286 273 352 35 332 318 283 340 299 233 212 231 231 256 279 286 286 271 206 288 312 113 108 76 64 46 28
292 218 113 16 312 268 249 283 36 33 357 340 295 310 317 334 335 316 307 13 354 51 352 310 303 279 254 320 226 224 228 220 230 246 249 257 240 265 150 149 89 67 63 42 26
262 226 88 313 278 238 239 353 30 72 2 328 326 305 306 303 292 290 293 300 29 347 332 2 281 281 293 202 249 212 231 210 234 271 275 303 325 1 53 337 73 74 67 47 30
261 222 69 292 225 213 252 24 356 305 173 279 292 277 271 297 309 305 293 295 39 334 339 43 303 284 274 258 238 301 226 205 206 225 246 260 290 104 283 213 109 89 73 53 38
249 102 160 258 233 217 88 169 316 285 297 324 305 317 315 299 292 286 302 338 37 318 360 8 290 306 269 248 156 260 192 248 233 264 216 256 98 36 292 327 79 76 63 57 37
353 146 157 212 64 333 75 287 242 122 290 281 280 298 289 298 285 272 272 330 296 314 82 73 257 248 275 307 317 290 284 202 181 256 214 240 336 278 359 6 64 57 52 49 40
46 265 17 186 156 104 185 167 321 309 223 288 290 308 300 291 306 299 311 307 305 67 74 104 272 274 274 292 292 285 288 265 211 218 232 343 326 50 34 36 36 38 38 41 34
119 308 194 104 87 247 109 173 326 26 4 305 316 307 310 296 293 300 309 302 302 292 180 310 279 307 282 276 291 272 268 126 336 255 233 235 93 86 53 38 37 34 39 40 31
229 264 277 134 164 143 83 31 0 351 302 286 296 313 303 302 308 302 294 285 276 274 269 282 287 309 277 307 298 256 208 180 189 69 51 51 33 27 47 51 37 38 46 44 33